User: anonymous   Login
Location: Unspecified
(0.0000°N, 0.0000°E)
Time: 17:06:48
(UTC+00:00)
Language:

CUBESAT XI-V - Orbit

View from above orbital plane
View from above orbital plane
View from above satellite
View from above satellite

Ground track
Ground track

The orbit data is extracted from the following two-line orbital elements,

1 28895U 05043F   17264.92301506  .00000155  00000-0  38610-4 0  9993
2 28895  97.8765  62.8210 0016548 193.2036 166.8736 14.63439279634630
Epoch (UTC): 21 September 2017 22:09:08
Eccentricity: 0.0016548
inclination: 97.8765°
perigee height: 670 km
apogee height: 694 km
right ascension of ascending node: 62.8210°
argument of perigee: 193.2036°
revolutions per day: 14.63439279
mean anomaly at epoch: 166.8736°
orbit number at epoch: 63463

The dashed part of the orbit path shows where the satellite is in the earth's shadow,  

DLR